• In Czech Republic
  • List of Countries
  • For 7 days
  • Water Temperature
  • Satellite Maps
  • Weather Map
  • Weather Widgets
  • user-avatar
    Login

    Hourly Weather Narman

    Today, 22 October, Sunday

    Time Temperature Precipitation Wind Pressure Humidity
    00:00 +6°C° 0 mm 1 mps 613 mmHg 56%
    01:00 +6°C° 0 mm 1 mps 613 mmHg 56%
    02:00 +5°C° 0 mm 1 mps 613 mmHg 57%
    03:00 +5°C° 0 mm 1 mps 613 mmHg 52%
    04:00 +5°C° 0 mm 1 mps 613 mmHg 53%
    05:00 +5°C° 0 mm 1 mps 612 mmHg 53%
    06:00 +3°C° 0 mm 2 mps 612 mmHg 54%
    07:00 +5°C° 0 mm 2 mps 613 mmHg 47%
    08:00 +8°C° 0 mm 2 mps 614 mmHg 41%
    09:00 +10°C° 0 mm 2 mps 614 mmHg 35%
    10:00 +11°C° 0 mm 3 mps 615 mmHg 31%
    11:00 +12°C° 0 mm 3 mps 615 mmHg 28%
    12:00 +14°C° 0 mm 4 mps 615 mmHg 24%
    13:00 +14°C° 0 mm 4 mps 615 mmHg 24%
    14:00 +14°C° 0 mm 5 mps 615 mmHg 24%
    15:00 +14°C° 0 mm 5 mps 615 mmHg 23%
    16:00 +12°C° 0 mm 4 mps 614 mmHg 28%
    17:00 +11°C° 0 mm 3 mps 614 mmHg 33%
    18:00 +9°C° 0 mm 2 mps 613 mmHg 38%
    19:00 +8°C° 0 mm 2 mps 613 mmHg 42%
    20:00 +7°C° 0 mm 2 mps 613 mmHg 45%
    21:00 +6°C° 0 mm 2 mps 613 mmHg 49%
    22:00 +6°C° 0 mm 2 mps 613 mmHg 51%
    23:00 +6°C° 0 mm 1 mps 613 mmHg 53%

    Tomorrow, 23 October, Monday

    Time Temperature Precipitation Wind Pressure Humidity
    00:00 +6°C° 0 mm 1 mps 613 mmHg 55%
    01:00 +5°C° 0 mm 1 mps 613 mmHg 57%
    02:00 +5°C° 0 mm 1 mps 613 mmHg 59%
    03:00 +5°C° 0 mm 1 mps 613 mmHg 61%
    04:00 +4°C° 0 mm 1 mps 613 mmHg 64%
    05:00 +4°C° 0 mm 1 mps 612 mmHg 67%
    06:00 +3°C° 0 mm 1 mps 612 mmHg 70%
    07:00 +5°C° 0 mm 1 mps 613 mmHg 61%
    08:00 +7°C° 0 mm 1 mps 614 mmHg 53%
    09:00 +9°C° 0 mm 1 mps 615 mmHg 45%
    10:00 +11°C° 0 mm 1 mps 616 mmHg 41%
    11:00 +12°C° 0 mm 2 mps 616 mmHg 36%
    12:00 +14°C° 0 mm 2 mps 616 mmHg 31%
    13:00 +15°C° 0 mm 2 mps 616 mmHg 29%
    14:00 +15°C° 0 mm 2 mps 616 mmHg 27%
    15:00 +16°C° 0 mm 2 mps 616 mmHg 25%
    16:00 +14°C° 0 mm 2 mps 615 mmHg 29%
    17:00 +12°C° 0 mm 2 mps 615 mmHg 33%
    18:00 +10°C° 0 mm 1 mps 614 mmHg 37%
    19:00 +10°C° 0 mm 1 mps 614 mmHg 37%
    20:00 +8°C° 0 mm 2 mps 614 mmHg 38%
    21:00 +8°C° 0 mm 2 mps 614 mmHg 39%
    22:00 +7°C° 0 mm 2 mps 614 mmHg 40%
    23:00 +7°C° 0 mm 2 mps 614 mmHg 41%

    Day after tomorrow, 24 October, Tuesday

    Time Temperature Precipitation Wind Pressure Humidity
    00:00 +6°C° 0 mm 2 mps 614 mmHg 43%
    01:00 +6°C° 0 mm 2 mps 614 mmHg 44%
    02:00 +5°C° 0 mm 2 mps 613 mmHg 46%
    03:00 +5°C° 0 mm 2 mps 613 mmHg 48%
    04:00 +5°C° 0 mm 2 mps 613 mmHg 49%
    05:00 +4°C° 0 mm 2 mps 613 mmHg 51%
    06:00 +4°C° 0 mm 2 mps 613 mmHg 53%
    07:00 +6°C° 0 mm 2 mps 614 mmHg 47%
    08:00 +8°C° 0 mm 2 mps 615 mmHg 42%
    09:00 +10°C° 0 mm 2 mps 616 mmHg 36%
    10:00 +12°C° 0 mm 3 mps 616 mmHg 34%
    11:00 +13°C° 0 mm 4 mps 617 mmHg 31%
    12:00 +15°C° 0 mm 4 mps 617 mmHg 28%
    13:00 +15°C° 0 mm 4 mps 617 mmHg 27%
    14:00 +16°C° 0 mm 5 mps 617 mmHg 26%
    15:00 +16°C° 0 mm 5 mps 617 mmHg 25%
    16:00 +14°C° 0 mm 4 mps 617 mmHg 30%
    17:00 +13°C° 0 mm 3 mps 616 mmHg 35%
    18:00 +12°C° 0 mm 2 mps 616 mmHg 40%
    19:00 +10°C° 0 mm 2 mps 616 mmHg 42%
    20:00 +9°C° 0 mm 2 mps 616 mmHg 44%
    21:00 +9°C° 0 mm 2 mps 616 mmHg 46%
    22:00 +8°C° 0 mm 2 mps 616 mmHg 47%
    23:00 +8°C° 0 mm 2 mps 616 mmHg 47%

    25 October, Wednesday

    Time Temperature Precipitation Wind Pressure Humidity
    00:00 +7°C° 0 mm 2 mps 616 mmHg 48%
    01:00 +7°C° 0 mm 2 mps 616 mmHg 49%
    02:00 +7°C° 0 mm 2 mps 616 mmHg 51%
    03:00 +6°C° 0 mm 2 mps 616 mmHg 52%
    04:00 +6°C° 0 mm 2 mps 616 mmHg 53%
    05:00 +6°C° 0 mm 2 mps 616 mmHg 54%
    06:00 +6°C° 0 mm 2 mps 615 mmHg 56%
    07:00 +8°C° 0 mm 2 mps 616 mmHg 50%
    08:00 +10°C° 0 mm 2 mps 617 mmHg 44%
    09:00 +13°C° 0 mm 2 mps 618 mmHg 38%
    10:00 +14°C° 0 mm 3 mps 619 mmHg 34%
    11:00 +15°C° 0 mm 4 mps 619 mmHg 31%
    12:00 +17°C° 0 mm 5 mps 619 mmHg 27%
    13:00 +17°C° 0 mm 5 mps 619 mmHg 26%
    14:00 +17°C° 0 mm 5 mps 619 mmHg 25%
    15:00 +19°C° 0 mm 5 mps 619 mmHg 24%
    16:00 +17°C° 0 mm 4 mps 618 mmHg 28%
    17:00 +14°C° 0 mm 3 mps 618 mmHg 32%
    18:00 +13°C° 0 mm 2 mps 617 mmHg 36%
    19:00 +12°C° 0 mm 2 mps 617 mmHg 38%
    20:00 +10°C° 0 mm 2 mps 617 mmHg 40%
    21:00 +10°C° 0 mm 2 mps 617 mmHg 42%
    22:00 +9°C° 0 mm 2 mps 617 mmHg 43%
    23:00 +9°C° 0 mm 2 mps 616 mmHg 45%

    26 October, Thursday

    Time Temperature Precipitation Wind Pressure Humidity
    00:00 +8°C° 0 mm 2 mps 616 mmHg 47%
    01:00 +8°C° 0 mm 2 mps 616 mmHg 48%
    02:00 +7°C° 0 mm 2 mps 616 mmHg 50%
    03:00 +7°C° 0 mm 2 mps 616 mmHg 51%
    04:00 +7°C° 0 mm 2 mps 615 mmHg 53%
    05:00 +7°C° 0 mm 1 mps 615 mmHg 54%
    06:00 +7°C° 0 mm 1 mps 615 mmHg 56%
    07:00 +9°C° 0 mm 1 mps 616 mmHg 50%
    08:00 +11°C° 0 mm 1 mps 617 mmHg 45%
    09:00 +13°C° 0 mm 1 mps 618 mmHg 40%
    10:00 +14°C° 0 mm 2 mps 618 mmHg 37%
    11:00 +15°C° 0 mm 2 mps 618 mmHg 35%
    12:00 +16°C° 0 mm 3 mps 618 mmHg 32%
    13:00 +16°C° 0 mm 3 mps 618 mmHg 32%
    14:00 +17°C° 0 mm 3 mps 618 mmHg 33%
    15:00 +17°C° 0 mm 4 mps 618 mmHg 33%
    16:00 +14°C° 0.1 mm 3 mps 617 mmHg 40%
    17:00 +12°C° 0.1 mm 3 mps 617 mmHg 48%
    18:00 +10°C° 0.1 mm 2 mps 616 mmHg 55%
    19:00 +10°C° 0.1 mm 2 mps 616 mmHg 60%
    20:00 +9°C° 0.1 mm 2 mps 616 mmHg 64%
    21:00 +9°C° 0.1 mm 1 mps 616 mmHg 69%
    22:00 +8°C° 0.1 mm 1 mps 615 mmHg 70%
    23:00 +8°C° 0.1 mm 1 mps 615 mmHg 71%

    27 October, Friday

    Time Temperature Precipitation Wind Pressure Humidity
    00:00 +8°C° 0.1 mm 1 mps 615 mmHg 72%
    01:00 +7°C° 0.2 mm 1 mps 615 mmHg 74%
    02:00 +6°C° 0.2 mm 2 mps 615 mmHg 76%
    03:00 +5°C° 0.2 mm 2 mps 615 mmHg 78%
    04:00 +5°C° 0.2 mm 2 mps 615 mmHg 80%
    05:00 +5°C° 0.2 mm 2 mps 615 mmHg 83%
    06:00 +4°C° 0.2 mm 2 mps 615 mmHg 85%
    07:00 +5°C° 0.1 mm 2 mps 615 mmHg 80%
    08:00 +7°C° 0.1 mm 2 mps 616 mmHg 74%
    09:00 +8°C° 0.1 mm 2 mps 617 mmHg 69%
    10:00 +9°C° 0 mm 2 mps 617 mmHg 61%
    11:00 +10°C° 0 mm 2 mps 617 mmHg 54%
    12:00 +11°C° 0 mm 3 mps 617 mmHg 47%
    13:00 +12°C° 0 mm 3 mps 617 mmHg 46%
    14:00 +12°C° 0 mm 3 mps 617 mmHg 44%
    15:00 +12°C° 0 mm 3 mps 617 mmHg 42%
    16:00 +11°C° 0 mm 3 mps 616 mmHg 48%
    17:00 +9°C° 0 mm 2 mps 616 mmHg 54%
    18:00 +8°C° 0 mm 2 mps 615 mmHg 60%
    19:00 +8°C° 0 mm 1 mps 615 mmHg 64%
    20:00 +7°C° 0 mm 1 mps 615 mmHg 67%
    21:00 +7°C° 0 mm 1 mps 614 mmHg 70%
    22:00 +6°C° 0 mm 1 mps 614 mmHg 68%
    23:00 +6°C° 0 mm 1 mps 614 mmHg 67%
    Show more